Theta_e
289 289 289 288 288 287 286 286 285 284 284 283 283 282 282 282 282 283 283 282 283 282 282 282 282 282 282 282 282 282 281 281 281 282 282 282 282 281 281 282 282 282
288 288 288 287 287 286 285 284 284 283 283 282 282 282 282 282 282 282 282 282 282 282 281 281 281 281 281 281 281 281 281 280 280 280 280 281 281 281 281 281 281 281
287 287 287 286 285 284 284 283 283 283 282 282 282 281 281 281 281 281 281 281 281 280 280 280 280 280 280 280 280 280 280 279 279 279 279 279 279 280 280 280 280 281
286 286 286 285 284 283 283 282 282 282 281 281 281 280 280 280 280 280 280 280 279 279 279 279 279 278 278 278 278 278 278 278 278 278 278 278 278 278 278 278 279 279
284 284 284 283 283 283 282 282 282 281 281 280 280 279 279 279 279 279 279 279 278 278 278 278 278 277 277 277 277 277 277 277 277 277 277 277 277 277 277 277 277 277
283 283 283 282 282 282 281 281 280 280 279 279 278 278 278 278 278 278 278 278 277 277 277 277 276 276 276 276 276 276 276 276 276 276 276 276 275 275 275 275 276 276
281 281 281 281 280 279 279 279 278 278 278 278 278 278 277 277 277 277 277 276 276 276 275 275 275 275 275 275 275 275 275 275 275 275 275 275 274 274 274 274 274 274
280 279 279 278 278 278 278 277 277 277 277 277 277 277 276 276 276 276 275 275 275 274 274 274 274 274 274 274 274 274 274 273 273 273 273 273 273 273 273 273 273 273
278 277 277 277 277 277 277 276 276 276 276 276 276 275 275 275 275 274 274 274 274 273 273 273 273 273 273 273 272 272 272 272 272 272 272 272 272 272 272 272 272 272
277 276 276 276 276 276 276 275 275 275 275 275 275 274 274 274 274 274 273 273 273 273 273 273 273 272 272 272 271 271 271 271 271 271 271 271 271 271 271 271 271 271
276 276 276 276 276 275 275 275 274 274 274 273 273 273 273 273 273 273 273 273 273 273 272 272 272 272 271 271 271 271 270 270 270 270 270 270 270 270 270 270 270 270
275 275 275 275 275 274 274 274 273 273 273 273 273 273 272 272 272 272 272 272 272 272 272 271 271 271 271 270 270 270 270 270 270 270 269 269 269 270 270 270 269 269
274 274 274 274 273 273 273 273 273 272 272 272 272 272 272 272 272 272 271 271 271 271 271 271 271 270 270 270 270 270 270 270 270 269 269 269 269 269 269 269 269 268
274 273 273 273 273 272 272 272 272 272 272 272 272 272 271 271 271 271 271 271 271 271 270 270 270 270 270 269 269 269 269 269 269 269 269 269 269 269 268 268 268 268
273 273 272 272 272 272 272 272 272 272 272 272 272 271 271 271 271 271 271 270 270 270 270 270 270 269 269 269 269 269 269 269 269 269 269 269 269 269 268 268 268 268
273 272 272 272 272 272 272 272 272 272 272 272 271 271 271 271 270 270 270 270 270 270 270 269 269 269 269 268 268 269 269 269 269 269 269 269 269 269 269 269 268 268
273 273 273 272 272 272 272 272 272 272 271 271 271 271 271 270 270 270 270 269 269 269 269 269 268 268 268 267 268 268 269 269 269 269 269 269 269 269 269 269 269 268
273 273 273 272 272 272 272 272 272 271 271 271 271 270 270 270 269 269 269 269 268 268 268 268 268 268 267 267 267 268 268 269 269 269 269 269 269 269 269 269 268 268
273 272 272 272 272 272 272 271 271 271 271 270 270 270 269 269 269 268 268 268 268 268 268 268 268 268 267 267 267 267 268 269 269 269 269 269 269 268 268 268 268 267
272 272 272 272 272 271 271 271 271 270 270 269 269 269 268 269 268 268 268 268 268 268 268 268 268 268 267 267 267 266 267 268 268 268 268 267 267 267 267 267 267 266
272 272 272 272 271 271 271 270 270 269 269 268 268 268 268 268 268 268 268 268 268 268 268 268 268 268 267 267 266 265 266 267 267 266 266 266 265 265 265 265 265 265
272 272 271 271 271 270 270 270 269 268 268 268 268 268 268 268 268 268 268 268 268 268 268 268 268 267 267 266 265 265 265 265 265 264 264 264 264 264 264 264 264 264
271 271 271 271 270 270 269 268 268 267 267 267 268 268 268 268 268 268 267 267 268 268 267 267 267 267 266 265 264 264 264 264 264 264 264 264 264 264 264 264 264 264
271 271 271 270 269 269 268 267 267 267 267 267 267 267 267 267 267 267 267 267 267 267 267 266 266 266 265 265 264 264 263 263 263 263 263 263 263 263 263 263 263 264
270 270 270 269 269 268 267 267 267 267 267 266 266 267 267 267 267 267 267 267 267 266 266 265 266 265 265 264 264 263 263 263 263 263 263 263 263 263 263 263 263 263
270 269 269 268 268 267 267 266 266 266 266 266 266 266 266 266 266 266 266 266 266 266 266 265 265 265 264 264 263 263 263 262 262 262 262 263 263 263 262 262 262 263
Wind_Speed
23 22 21 20 19 17 16 15 14 14 14 15 15 16 15 15 13 12 12 12 11 11 11 11 11 11 11 11 11 11 11 11 11 11 11 11 11 10 9 9 9 9
23 21 20 19 19 17 16 15 14 14 14 14 15 15 14 13 12 11 11 11 10 10 10 10 10 10 10 10 10 10 10 10 10 10 10 10 9 8 8 7 7 8
22 21 20 19 18 17 16 15 14 13 13 14 13 13 12 12 11 11 11 10 10 10 9 9 9 9 9 9 9 9 9 9 9 9 9 9 8 8 7 6 6 7
22 21 19 18 17 16 15 14 13 13 13 13 13 12 11 11 11 11 10 10 9 9 9 9 9 9 9 9 9 9 9 9 9 8 8 7 7 7 7 7 6 7
21 20 18 18 16 15 14 13 13 13 12 13 13 12 11 10 10 10 10 9 9 9 8 8 9 9 9 9 9 9 8 8 8 8 8 7 7 7 7 8 7 7
21 19 18 17 16 15 14 14 14 13 13 13 12 11 10 10 10 10 9 9 8 8 8 8 8 8 8 8 8 8 9 8 8 8 8 8 7 8 8 9 9 9
21 19 18 17 16 16 15 15 14 13 12 12 11 10 9 9 9 9 9 8 8 7 7 7 7 8 8 8 8 8 8 8 9 8 8 8 9 9 9 10 11 11
21 20 19 18 17 16 15 15 13 12 11 10 10 9 8 8 9 9 8 7 7 7 7 7 7 7 7 8 8 8 8 8 9 9 10 10 10 11 11 11 12 12
21 20 19 17 17 16 14 13 12 11 10 8 8 8 7 8 8 7 7 6 6 6 6 6 6 7 7 8 8 8 8 9 9 10 11 11 12 12 12 12 12 13
20 19 17 16 15 14 13 12 11 10 9 8 7 7 6 7 7 7 6 5 5 5 6 6 6 7 7 8 8 9 9 9 10 10 11 12 13 13 13 13 14 14
19 17 16 15 14 13 12 11 10 9 8 7 6 6 6 6 6 6 6 5 6 6 6 7 7 8 8 8 8 9 10 11 11 11 12 12 13 14 14 13 13 14
18 17 15 14 13 12 11 10 9 9 8 7 6 5 6 6 6 6 6 6 7 7 7 8 8 8 9 9 9 10 11 11 12 12 12 13 14 15 15 14 14 13
17 16 15 14 13 12 11 10 9 9 8 7 6 5 5 5 6 7 7 7 8 8 8 8 8 8 9 9 10 11 11 12 12 12 13 14 15 16 16 16 16 15
17 16 15 14 13 12 11 10 9 8 7 6 6 4 4 5 6 7 8 8 8 9 9 9 9 9 9 10 10 11 12 12 13 13 15 15 15 16 17 17 18 17
17 16 15 14 13 12 11 9 8 7 6 5 4 3 4 5 6 7 8 8 9 9 10 10 11 11 10 11 12 12 12 13 14 15 15 16 16 16 17 18 18 18
16 15 14 13 12 11 9 7 6 5 4 3 2 2 4 5 7 8 9 9 9 10 10 11 12 12 12 13 14 13 13 14 15 16 16 16 17 18 18 18 17 17
16 15 14 12 11 9 7 6 5 4 2 1 1 3 4 6 7 8 9 10 11 11 12 13 13 14 14 15 14 13 14 15 16 17 18 18 18 19 18 18 17 17
15 14 13 11 9 7 6 5 4 3 1 1 3 4 6 7 9 10 10 11 12 13 14 15 16 16 16 17 16 14 14 15 16 17 19 19 19 18 18 18 19 19
14 13 11 9 8 7 6 5 3 1 1 3 5 6 8 9 10 11 12 13 14 16 17 18 19 19 19 19 18 16 14 15 16 17 19 19 19 19 20 20 20 21
13 11 10 10 9 7 6 3 2 2 4 6 8 9 10 12 13 14 15 15 16 18 19 20 20 21 21 20 19 17 15 15 16 18 19 20 20 20 21 22 22 22
12 11 11 10 8 6 3 2 3 4 6 8 9 11 12 14 15 15 16 17 18 19 20 21 21 21 21 21 19 17 15 15 17 18 19 19 20 20 21 22 22 22
12 12 10 8 6 3 2 3 5 6 8 9 11 12 13 14 15 16 17 19 19 20 22 22 22 21 20 20 18 16 15 16 17 17 18 19 20 20 20 20 20 20
12 10 8 6 4 3 3 5 6 7 9 11 12 14 15 16 17 17 18 20 21 21 22 23 23 21 19 18 17 15 15 16 17 18 19 20 20 20 19 19 18 17
10 8 5 4 2 3 4 6 7 8 10 12 13 15 15 16 18 19 19 20 21 21 21 22 22 20 18 17 16 15 15 16 17 19 20 21 21 21 20 19 18 16
8 6 4 2 3 4 5 7 8 9 11 12 13 15 16 17 18 20 21 21 21 21 21 21 22 20 18 17 17 16 15 16 17 18 21 22 21 22 22 20 18 17
6 4 2 3 4 5 6 7 9 10 11 13 14 15 16 18 19 20 22 22 22 22 21 20 21 20 18 17 17 16 15 15 16 18 20 22 22 22 22 21 20 18
Wind_Direction
144 145 144 142 138 135 133 130 125 119 109 101 95 90 86 83 78 72 66 60 54 50 45 41 38 34 32 28 25 23 21 20 19 16 14 10 8 10 8 5 0 352
143 143 142 140 135 131 129 126 121 115 106 99 94 90 89 86 82 76 70 65 58 53 49 43 40 36 33 30 26 23 20 20 19 15 12 8 4 2 357 350 343 336
140 140 140 136 133 129 126 124 119 113 107 102 98 95 92 90 86 81 76 71 65 61 56 49 45 41 36 33 28 24 21 18 18 15 9 5 1 356 351 343 330 321
137 137 136 133 131 129 127 126 121 117 113 109 105 100 97 93 90 87 82 77 72 65 59 52 46 40 35 32 27 24 22 17 14 12 8 1 354 349 344 341 331 323
135 134 134 133 132 132 132 132 127 124 122 116 111 107 104 101 96 91 84 78 72 64 56 47 41 36 29 25 21 18 17 14 9 5 5 0 354 349 342 338 335 331
134 134 134 134 135 137 138 136 132 130 127 120 117 113 109 104 96 89 82 73 66 58 51 41 34 29 24 18 14 10 6 5 1 356 354 351 349 347 342 338 338 338
135 135 137 138 139 141 141 136 133 132 126 120 117 112 106 100 91 84 75 67 60 50 44 37 29 21 15 10 5 3 358 352 350 346 343 340 339 339 338 338 337 337
137 138 140 142 143 143 140 136 133 128 122 119 115 108 102 95 87 81 73 64 56 47 36 28 22 13 5 359 353 351 347 341 338 335 333 333 333 334 336 337 334 332
140 141 143 144 143 142 138 134 130 123 119 117 111 106 101 94 86 81 74 63 51 40 30 19 12 5 356 350 344 340 337 334 331 329 329 328 328 330 330 329 327 325
142 142 144 144 141 140 137 133 128 123 120 116 110 106 100 92 84 79 70 57 44 30 18 8 0 355 350 343 338 334 331 328 327 325 324 323 322 322 321 320 319 319
144 144 145 144 143 142 138 134 130 126 124 119 115 110 101 92 83 76 64 49 39 24 13 4 355 349 343 338 333 329 326 325 324 322 319 317 315 313 312 310 311 312
148 147 148 148 146 144 140 136 132 130 129 125 121 116 105 95 84 74 61 48 38 25 17 8 359 351 343 338 334 328 325 322 319 316 313 310 308 308 307 307 307 309
151 151 153 151 149 146 141 138 136 133 132 126 118 111 98 85 73 62 50 40 31 21 13 4 357 352 343 337 333 327 324 321 318 314 309 306 306 306 307 308 308 309
155 154 155 153 150 147 143 141 140 135 129 119 107 94 77 62 53 45 34 26 18 9 2 356 350 345 338 333 328 323 321 319 318 317 315 313 311 308 307 307 307 307
157 155 154 152 150 148 146 144 140 133 122 107 92 69 48 38 31 26 19 12 6 358 351 346 340 336 333 327 323 322 322 321 318 317 316 313 310 307 303 302 302 303
157 154 153 152 150 148 147 144 138 131 119 102 76 31 19 20 16 12 6 358 352 345 339 333 329 327 324 320 320 321 318 314 310 309 308 306 304 301 297 296 296 297
156 154 153 151 150 149 150 149 148 142 128 104 7 355 359 3 1 358 353 347 340 334 330 328 326 325 323 321 321 317 310 306 304 302 301 300 298 295 292 292 293 293
157 156 153 152 153 157 163 161 161 162 160 311 326 338 345 349 350 348 346 342 336 333 330 329 330 330 328 326 324 318 309 303 300 297 295 293 291 290 288 289 290 290
159 157 155 158 163 166 170 168 170 202 288 316 324 334 341 345 348 347 346 343 338 335 333 331 332 332 329 328 326 321 311 303 298 293 289 287 286 286 286 287 288 288
161 162 162 165 168 169 173 182 216 292 316 323 329 338 344 348 349 347 345 342 338 335 332 331 333 332 329 329 327 322 314 304 296 288 284 284 283 283 284 285 286 288
163 166 167 167 170 176 194 242 298 317 324 331 338 345 349 349 347 344 340 338 336 333 331 331 332 332 330 328 327 322 313 303 294 288 286 286 285 285 285 285 286 288
165 168 170 172 181 202 250 296 322 330 334 340 344 346 347 345 342 339 337 335 334 333 331 330 331 332 330 327 325 319 310 302 296 294 293 292 292 292 291 290 290 290
171 175 178 182 206 254 298 320 334 339 342 345 345 343 343 341 337 336 335 333 333 333 331 329 329 330 328 324 320 314 308 303 301 300 300 299 299 299 299 299 298 296
176 183 191 202 245 301 324 333 341 344 345 346 344 341 339 337 334 332 331 332 331 331 329 326 324 325 323 318 315 310 306 303 303 303 302 302 304 305 305 305 303 302
183 192 209 247 298 323 334 339 344 345 344 343 340 337 335 332 331 329 328 328 328 326 325 322 318 319 319 314 311 308 304 302 302 303 303 304 306 308 308 307 306 306
191 207 249 303 320 332 339 341 344 343 340 338 335 332 331 328 328 327 324 324 324 321 320 318 315 316 317 313 309 306 304 302 301 302 303 305 307 307 307 306 306 307